Find Local Weather

World > North America > United States > Texas

Plano, Texas Regional Weather

Lat: 33.05N, Lon: 96.75W
Wx Zone: TXZ104
Feedback
Expires:201810230000;;586368
ASUS44 KFWD 222303
RWRTX 
NORTH TEXAS HOURLY WEATHER ROUNDUP
NATIONAL WEATHER SERVICE FORT WORTH TX
600 PM CDT MON OCT 22 2018

NOTE: "FAIR" INDICATES FEW OR NO CLOUDS BELOW 12,000 FEET WITH NO
SIGNIFICANT WEATHER AND/OR OBSTRUCTIONS TO VISIBILITY.


TXZ091>094-102>105-117-120-121-131>134-230000-
NORTH CENTRAL TEXAS
  
CITY           SKY/WX    TMP DP  RH WIND       PRES   REMARKS
SHRMAN/DENISON FAIR      61  48  62 CALM      30.17S                  
GAINESVILLE      N/A    N/A N/A N/A MISG        N/A                   
BOWIE          FAIR      63  49  61 CALM      30.14F                  
BRIDGEPORT     FAIR      63  50  63 SE5       30.15F                  
DECATUR        FAIR      62  47  56 CALM      30.15S                  
DENTON         FAIR      62  47  57 S7        30.15S                  
MCKINNEY       FAIR      61  48  62 CALM      30.16S                  
BONHAM         FAIR      59  46  62 E6        30.17S                  
GREENVILLE     FAIR      64  50  59 CALM      30.17S                  
ROCKWALL       FAIR      65  50  58 CALM      30.16S                  
TERRELL        FAIR      63  47  55 NE3       30.16S                  
WAXAHACHIE     FAIR      62  49  63 CALM      30.17S                  
CLEBURNE       FAIR      63  48  59 SE7       30.17S                  
GRANBURY       FAIR      64  50  60 E5        30.15F HAZE             
$$


SKY/WX - Weather  TMP - Temperature  DP - Dew Point  RH - Relative Humidity
WIND - Wind Direction/Speed PRES - Barometric Pressure